User: anonymous   Login
Location: 81360 Arifat, France
(43.7204°N, 2.3408°E)
Time: 23:33:29
(UTC+02:00)
Language:

GHALIB - Orbit

View from above orbital plane
View from above orbital plane
View from above satellite
View from above satellite

Ground track
Ground track

The orbit data is extracted from the following two-line orbital elements,

1 48962U 21059CM  24104.09497534  .13470190  26779-5  49614-3 0  9996
2 48962  97.5807 262.0407 0014620 273.8737  86.0892 16.42736175155992
Epoch (UTC): 13 April 2024 02:16:45
Eccentricity: 0.0014620
inclination: 97.5807°
perigee height: 149 km
apogee height: 168 km
right ascension of ascending node: 262.0407°
argument of perigee: 273.8737°
revolutions per day: 16.42736175
mean anomaly at epoch: 86.0892°
orbit number at epoch: 15599

The dashed part of the orbit path shows where the satellite is in the earth's shadow,  

DLR